STARLINK-3608, 51776

Orbit data source: Space-Track

STARLINK-3608, 51776 is a payload satellite owned by SpaceX/Seattle (US) in LEO that was launched on Fri, 25 Feb 2022 UTC via an FALCON 9 launch vehicle from the Air Force Western Test Range (AFWTR). Payload-class satellites include a variety of spacecraft equipped with specific instruments for various scientific and technological missions. These include communications satellites like Starlink; space stations such as the ISS; scientific satellites like the Hubble; Earth observation satellites from companies like Planet Labs, Umbra, and HawkEye 360; GPS; miniature CubeSats for education and research; and military/defense satellites.

Loading next visibility...
Identifier
51776, 2022-017J
Orbit
LEO
Country
Flag of USUS
Related business
Manufacturer
SpaceX/Seattle
Mission
Operational Commercial Communications
Bus & Motor
STARLINK, Unknown motor
Mass
297 kg wet, ~275 kg dry
Launch date (UTC)
2022-02-25 (4 years ago)
Launch vehicle
FALCON 9
Launch site
Air Force Western Test Range (AFWTR)
Object type
Payload
Rocket body
Debris
Shape & HBR
Box + 1 Pan, 10.1 m
Radar Cross Section
13.562 m², Large (>1 m²)

Expand to show TLE details & history
Last TLE update: 2 days ago

TLE from 2 days ago
0 STARLINK-3608
1 51776U 22017J   26171.46223170  .00000378  00000-0  41817-4 0  9993
2 51776  53.1591 237.6393 0001130  89.3712 270.7408 15.08836487238089
Epoch: 2026-06-20T11:05Z
TLE epoch observation values (Epoch: 2026-06-20T11:05:36.818Z)
Latitude
-0.00011°
Longitude
162.5593°
Altitude
540.635 km
Speed
7.593 km/s
True Right ascension
15h 50m 33s
True Declination
0° 00' 00"
Sunlit
Object was in full shadow at epoch
Visualization orbit readout
Latitude
Unknown
Longitude
Unknown
Altitude
Unknown
Speed
Unknown
Apparent Right ascension
Unknown
Apparent Declination
Unknown
Sunlit
N/A
Visualization observer readout
Local Sidereal Time
23:07:48
Azimuth
Unknown
Elevation
Unknown
Doppler factor
Unknown
Orbital elements
Apogee altitude
540.79 km
Perigee altitude
539.227 km
Semi-major axis
6,918.145 km
Eccentricity
0.00011
Inclination
53.1591°
RAAN
237.6393°
Arg. of periapsis
89.3712°
True anomaly
270.72785°
Mean anomaly
270.7408°
Eccentric anomaly
270.73433°
Mean motion
3.77189 °/min
Orbital period
95.44 mins
BSTAR
0.000041817
Loading maneuver chart data...
Computing Atmospheric mass density...

Documentation

Showing up to 5 results
|